PSLV R/B, 40058

Orbit data source: Space-Track

PSLV R/B, 40058 is space debris in SSO originally from a launch on Mon, 30 Jun 2014 UTC launched from the Sirharikota (SRI). Debris objects in space refer to the collection of defunct objects orbiting the Earth. Examples of debris include non-operational satellites, rocket bodies, and fragments generated from explosions, collisions, or faulty payload assembly.

Loading next visibility...
PSLV R/B details
Identifier
40058, 2014-034F
Orbit
SSO
Last TLE update17 hours ago
Origin
Flag of INISRO (IN / IND)
ManufacturerVSSC/LPSC
MissionSpacecraft
Bus & MotorPS-4, Unknown motor
Mass920 kg wet, 920 kg dry
Launch date (UTC)
2014-06-30 (10 years ago)
Launch vehicleUnknown
Launch site
Sirharikota (SRI)
Object type
Payload
Rocket body
Debris
Shape & HBRCyl + Cyl + 2 Nozzle, 3.238 m
Radar Cross Section6.185 m², Large (>1 m²)

Expand to show TLE details & history

TLE from 17 hours ago
0 PSLV R/B
1 40058U 14034F   24336.77311333  .00003153  00000-0  39802-3 0  9992
2 40058  98.3301 164.3733 0020750 353.1755   6.9171 14.82545194562687
Epoch: 2024-12-01T18:33Z
Definitive object data (Epoch: 2024-12-01T18:33:16.991Z)
Latitude-0.00007°
Longitude174.946°
Altitude609.893 km
Speed7.562 km/s
True Right ascension10h 57m 29s
True Declination0° 00' 00"
Sunlit
Object was in daylight at TLE epoch
Visualization TLE readout
Latitude76.79025°
Longitude137.318°
Altitude633.938 km
Speed7.548 km/s
Apparent Right ascension21h 05m 59s
Apparent Declination39° 34' 36"
Sunlit
Object is in full shadow
Visualization observer readout
Local Sidereal Time08:53:15
Azimuth357.503° N
Elevation-10.454°
Doppler factor1
Orbital elements
Apogee altitude632.877 km
Perigee altitude603.841 km
Semi-major axis6,996.496 km
Eccentricity0.002075
Inclination98.3301°
RAAN164.3733°
Arg. of periapsis353.1755°
True anomaly6.94581°
Mean anomaly6.9171°
Eccentric anomaly6.93145°
Mean motion3.70871 °/min
BSTAR0.00039802
Orbital period97.07 mins
Loading maneuver chart data...
Loading historical data...
Loading historical data...
Loading historical data...
Loading historical data...
Loading historical data...
Loading historical data...
Loading historical data...
Other satellites on launch #34 in the year 2014 (2014-06-30 UTC)

PSLV R/B Visibility forecast

Observer location: undefined°, undefined

Span
Click to sort rows by Start time (UTC) header in descending order
Start Az.
Max El. time (UTC)
Max El. Az.
Max El.
End time (UTC)
End Az.
7 mins2024-12-02 12:29:34.824Z154.725° SSE2024-12-02 12:33:34.824Z54.605° ENE41.899°2024-12-02 12:36:34.824Z355.472° N
6 mins2024-12-03 01:54:34.824Z359.992° N2024-12-03 01:57:34.824Z265.227° W40.543°2024-12-03 02:00:34.824Z209.691° SW
|